Location: Natural Bridges National Monument
(37.6093°N, 109.9767°W)
Time: 11:16:00
(UTC-06:00)

Cosmos 1727 Rocket - Visible Passes

Search period start: 29 May 2016 00:00
Search period end: 08 June 2016 00:00
Orbit: 962 x 995 km, 82.9° (Epoch: 28 May)

Date Brightness Start Highest point End Pass type
(mag) Time Alt. Az. Time Alt. Az. Time Alt. Az.
30 May 6.8 04:17:03 10° NE 04:20:17 14° ENE 04:23:30 10° E visible
31 May 6.2 04:41:51 10° NNE 04:47:07 27° ENE 04:52:20 10° SE visible
01 Jun 5.1 05:07:35 10° N 05:13:45 50° E 05:19:48 10° SSE visible
02 Jun 6.8 03:51:18 10° NE 03:53:53 13° ENE 03:56:27 10° E visible
03 Jun 6.3 04:15:43 10° NNE 04:20:45 24° ENE 04:25:43 10° SE visible
04 Jun 5.2 04:41:22 10° N 04:47:24 45° ENE 04:53:21 10° SSE visible
05 Jun 6.9 03:25:50 10° NE 03:27:27 11° ENE 03:29:04 10° E visible
05 Jun 4.2 05:07:30 10° N 05:13:51 84° E 05:20:08 10° S visible
06 Jun 6.3 03:49:38 10° NNE 03:54:22 22° ENE 03:59:03 10° ESE visible
07 Jun 5.3 04:15:09 10° N 04:21:04 40° ENE 04:26:53 10° SE visible
